SL-16 DEB, 24303

Orbit data source: Space-Track

SL-16 DEB, 24303 is space debris in LEO originally from a launch on Wed, 04 Sep 1996 UTC launched from the Tyuratam Missile And Space Complex (TTMTR). Debris objects in space refer to the collection of defunct objects orbiting the Earth. Examples of debris include non-operational satellites, rocket bodies, and fragments generated from explosions, collisions, or faulty payload assembly.

Loading next visibility...
Identifier
24303, 1996-051G
Orbit
LEO
Country
Flag of CISCIS
Related business
Manufacturer
Unknown
Mission
Spacecraft
Bus & Motor
Unknown
Mass
Unknown
Launch date (UTC)
1996-09-04 (29 years ago)
Launch vehicle
Unknown
Launch site
Tyuratam Missile And Space Complex (TTMTR)
Object type
Payload
Rocket body
Debris
Shape & HBR
Unknown
Radar Cross Section
0.470 m², Medium (>0.1 m² and < 1m²)

Expand to show TLE details & history
Last TLE update: 20 hours ago

TLE from 20 hours ago
0 SL-16 DEB
1 24303U 96051G   25261.06096073  .00000135  00000-0  10340-3 0  9990
2 24303  71.1052 233.6134 0068669  47.0045  21.0853 14.08373755492352
Epoch: 2025-09-18T01:27Z
TLE epoch observation values (Epoch: 2025-09-18T01:27:47.007Z)
Latitude
61.69283°
Longitude
-106.35408°
Altitude
828.596 km
Speed
7.469 km/s
True Right ascension
18h 11m 16s
True Declination
61° 33' 01"
Sunlit
Object was in daylight at epoch
Visualization orbit readout
Latitude
Unknown
Longitude
Unknown
Altitude
Unknown
Speed
Unknown
Apparent Right ascension
Unknown
Apparent Declination
Unknown
Sunlit
N/A
Visualization observer readout
Local Sidereal Time
14:42:15
Azimuth
Unknown
Elevation
Unknown
Doppler factor
Unknown
Orbital elements
Apogee altitude
912.586 km
Perigee altitude
813.14 km
Semi-major axis
7,241 km
Eccentricity
0.00687
Inclination
71.1052°
RAAN
233.6134°
Arg. of periapsis
47.0045°
True anomaly
21.37067°
Mean anomaly
21.0853°
Eccentric anomaly
21.22776°
Mean motion
3.52245 °/min
Orbital period
102.2 mins
BSTAR
0.0001034
Loading maneuver chart data...
Computing Atmospheric mass density...
Loading historical data...
Loading historical data...
Loading historical data...
Loading historical data...
Loading historical data...
Loading historical data...
Loading historical data...

Documentation

Showing up to 5 results
|